Terminal Aerodrome Forecast
Issued by NWS

Home | Current Version | Previous Version | Text Only | Print | Product List | Glossary On
Versions: 1 2 3 4 5 6 7 8 9 10 11 12 13 14 15 16 17 18 19 20 21 22 23 24 25 26 27 28 29 30 31 32
000
FTUS42 KRAH 231730
TAFRWI
TAF
KRWI 231730Z 2318/2418 05006KT P6SM OVC100
     FM240800 02010KT 6SM -RA OVC015
     FM241200 04012G22KT 5SM -RA BR OVC007=

USA.gov is the U.S. government's official web portal to all federal, state and local government web resources and services.